Terminal Aerodrome Forecast
Issued by NWS Twin Cities, MN

Home | Current Version | Previous Version | Graphics & Text | Print | Product List | Glossary On
Versions: 1 2 3 4 5 6 7 8 9 10 11 12 13 14 15 16 17 18 19 20 21 22 23 24 25 26 27
414
FTUS43 KMPX 091454 AAB
TAFMSP
TAF AMD
KMSP 091454Z 0915/1018 24007KT P6SM BKN014 OVC050
      TEMPO 0915/0917 4SM -SHSN
     FM091700 28007KT P6SM SCT025 BKN060
     FM101100 VRB03KT P6SM SCT060 BKN200=

USA.gov is the U.S. government's official web portal to all federal, state and local government web resources and services.